﻿測定場所 (Monitoring sites),日付 (Measurement date),時間 (Measurement time),線量率 最大値 (max) μGy/h,線量率 最小値 (min) μGy/h,線量率 平均値 (average) μGy/h,
江戸川 (Edogawa),2016-03-13,23:01～24:00,0.0600,0.0527,0.0565,
江戸川 (Edogawa),2016-03-13,22:01～23:00,0.0600,0.0508,0.0567,
江戸川 (Edogawa),2016-03-13,21:01～22:00,0.0608,0.0530,0.0568,
江戸川 (Edogawa),2016-03-13,20:01～21:00,0.0604,0.0532,0.0567,
江戸川 (Edogawa),2016-03-13,19:01～20:00,0.0594,0.0533,0.0564,
江戸川 (Edogawa),2016-03-13,18:01～19:00,0.0594,0.0533,0.0567,
江戸川 (Edogawa),2016-03-13,17:01～18:00,0.0613,0.0522,0.0567,
江戸川 (Edogawa),2016-03-13,16:01～17:00,0.0598,0.0532,0.0566,
江戸川 (Edogawa),2016-03-13,15:01～16:00,0.0606,0.0532,0.0569,
江戸川 (Edogawa),2016-03-13,14:01～15:00,0.0603,0.0547,0.0568,
江戸川 (Edogawa),2016-03-13,13:01～14:00,0.0598,0.0538,0.0570,
江戸川 (Edogawa),2016-03-13,12:01～13:00,0.0617,0.0541,0.0569,
江戸川 (Edogawa),2016-03-13,11:01～12:00,0.0597,0.0536,0.0567,
江戸川 (Edogawa),2016-03-13,10:01～11:00,0.0594,0.0543,0.0568,
江戸川 (Edogawa),2016-03-13,09:01～10:00,0.0594,0.0536,0.0564,
江戸川 (Edogawa),2016-03-13,08:01～09:00,0.0592,0.0520,0.0565,
江戸川 (Edogawa),2016-03-13,07:01～08:00,0.0604,0.0544,0.0571,
江戸川 (Edogawa),2016-03-13,06:01～07:00,0.0619,0.0536,0.0566,
江戸川 (Edogawa),2016-03-13,05:01～06:00,0.0594,0.0531,0.0564,
江戸川 (Edogawa),2016-03-13,04:01～05:00,0.0606,0.0536,0.0564,
江戸川 (Edogawa),2016-03-13,03:01～04:00,0.0599,0.0539,0.0567,
江戸川 (Edogawa),2016-03-13,02:01～03:00,0.0598,0.0522,0.0563,
江戸川 (Edogawa),2016-03-13,01:01～02:00,0.0601,0.0533,0.0563,
江戸川 (Edogawa),2016-03-13,00:01～01:00,0.0600,0.0533,0.0563,
江戸川 (Edogawa),2016-03-12,23:01～24:00,0.0598,0.0541,0.0568,
江戸川 (Edogawa),2016-03-12,22:01～23:00,0.0609,0.0540,0.0567,
江戸川 (Edogawa),2016-03-12,21:01～22:00,0.0591,0.0509,0.0565,
江戸川 (Edogawa),2016-03-12,20:01～21:00,0.0615,0.0537,0.0569,
江戸川 (Edogawa),2016-03-12,19:01～20:00,0.0597,0.0525,0.0566,
江戸川 (Edogawa),2016-03-12,18:01～19:00,0.0599,0.0534,0.0564,
江戸川 (Edogawa),2016-03-12,17:01～18:00,0.0602,0.0520,0.0564,
江戸川 (Edogawa),2016-03-12,16:01～17:00,0.0608,0.0527,0.0566,
江戸川 (Edogawa),2016-03-12,15:01～16:00,0.0600,0.0527,0.0566,
江戸川 (Edogawa),2016-03-12,14:01～15:00,0.0608,0.0548,0.0571,
江戸川 (Edogawa),2016-03-12,13:01～14:00,0.0591,0.0530,0.0567,
江戸川 (Edogawa),2016-03-12,12:01～13:00,0.0603,0.0536,0.0565,
江戸川 (Edogawa),2016-03-12,11:01～12:00,0.0618,0.0531,0.0566,
江戸川 (Edogawa),2016-03-12,10:01～11:00,0.0610,0.0537,0.0569,
江戸川 (Edogawa),2016-03-12,09:01～10:00,0.0599,0.0537,0.0569,
江戸川 (Edogawa),2016-03-12,08:01～09:00,0.0597,0.0545,0.0566,
江戸川 (Edogawa),2016-03-12,07:01～08:00,0.0597,0.0531,0.0568,
江戸川 (Edogawa),2016-03-12,06:01～07:00,0.0593,0.0542,0.0565,
江戸川 (Edogawa),2016-03-12,05:01～06:00,0.0594,0.0522,0.0566,
江戸川 (Edogawa),2016-03-12,04:01～05:00,0.0593,0.0527,0.0564,
江戸川 (Edogawa),2016-03-12,03:01～04:00,0.0597,0.0530,0.0563,
江戸川 (Edogawa),2016-03-12,02:01～03:00,0.0591,0.0535,0.0565,
江戸川 (Edogawa),2016-03-12,01:01～02:00,0.0591,0.0535,0.0564,
江戸川 (Edogawa),2016-03-12,00:01～01:00,0.0598,0.0533,0.0563,
江戸川 (Edogawa),2016-03-11,23:01～24:00,0.0593,0.0532,0.0560,
江戸川 (Edogawa),2016-03-11,22:01～23:00,0.0620,0.0534,0.0563,
江戸川 (Edogawa),2016-03-11,21:01～22:00,0.0587,0.0527,0.0561,
江戸川 (Edogawa),2016-03-11,20:01～21:00,0.0598,0.0522,0.0560,
江戸川 (Edogawa),2016-03-11,19:01～20:00,0.0595,0.0528,0.0561,
江戸川 (Edogawa),2016-03-11,18:01～19:00,0.0607,0.0510,0.0562,
江戸川 (Edogawa),2016-03-11,17:01～18:00,0.0591,0.0535,0.0568,
江戸川 (Edogawa),2016-03-11,16:01～17:00,0.0608,0.0528,0.0567,
江戸川 (Edogawa),2016-03-11,15:01～16:00,0.0588,0.0534,0.0562,
江戸川 (Edogawa),2016-03-11,14:01～15:00,0.0610,0.0533,0.0565,
江戸川 (Edogawa),2016-03-11,13:01～14:00,0.0612,0.0532,0.0572,
江戸川 (Edogawa),2016-03-11,12:01～13:00,0.0603,0.0537,0.0574,
江戸川 (Edogawa),2016-03-11,11:01～12:00,0.0622,0.0554,0.0580,
江戸川 (Edogawa),2016-03-11,10:01～11:00,0.0613,0.0554,0.0586,
江戸川 (Edogawa),2016-03-11,09:01～10:00,0.0620,0.0547,0.0583,
江戸川 (Edogawa),2016-03-11,08:01～09:00,0.0617,0.0560,0.0581,
江戸川 (Edogawa),2016-03-11,07:01～08:00,0.0631,0.0558,0.0590,
江戸川 (Edogawa),2016-03-11,06:01～07:00,0.0627,0.0533,0.0583,
江戸川 (Edogawa),2016-03-11,05:01～06:00,0.0610,0.0525,0.0567,
江戸川 (Edogawa),2016-03-11,04:01～05:00,0.0613,0.0542,0.0568,
江戸川 (Edogawa),2016-03-11,03:01～04:00,0.0598,0.0523,0.0567,
江戸川 (Edogawa),2016-03-11,02:01～03:00,0.0603,0.0551,0.0575,
江戸川 (Edogawa),2016-03-11,01:01～02:00,0.0617,0.0522,0.0570,
江戸川 (Edogawa),2016-03-11,00:01～01:00,0.0596,0.0531,0.0560,
江戸川 (Edogawa),2016-03-10,23:01～24:00,0.0597,0.0531,0.0566,
江戸川 (Edogawa),2016-03-10,22:01～23:00,0.0605,0.0538,0.0567,
江戸川 (Edogawa),2016-03-10,21:01～22:00,0.0614,0.0532,0.0565,
江戸川 (Edogawa),2016-03-10,20:01～21:00,0.0616,0.0541,0.0566,
江戸川 (Edogawa),2016-03-10,19:01～20:00,0.0628,0.0539,0.0566,
江戸川 (Edogawa),2016-03-10,18:01～19:00,0.0591,0.0537,0.0563,
江戸川 (Edogawa),2016-03-10,17:01～18:00,0.0599,0.0541,0.0568,
江戸川 (Edogawa),2016-03-10,16:01～17:00,0.0591,0.0532,0.0567,
江戸川 (Edogawa),2016-03-10,15:01～16:00,0.0599,0.0534,0.0566,
江戸川 (Edogawa),2016-03-10,14:01～15:00,0.0603,0.0545,0.0568,
江戸川 (Edogawa),2016-03-10,13:01～14:00,0.0603,0.0525,0.0566,
江戸川 (Edogawa),2016-03-10,12:01～13:00,0.0606,0.0530,0.0567,
江戸川 (Edogawa),2016-03-10,11:01～12:00,0.0601,0.0537,0.0572,
江戸川 (Edogawa),2016-03-10,10:01～11:00,0.0608,0.0527,0.0568,
江戸川 (Edogawa),2016-03-10,09:01～10:00,0.0620,0.0533,0.0569,
江戸川 (Edogawa),2016-03-10,08:01～09:00,0.0610,0.0539,0.0566,
江戸川 (Edogawa),2016-03-10,07:01～08:00,0.0604,0.0537,0.0565,
江戸川 (Edogawa),2016-03-10,06:01～07:00,0.0608,0.0523,0.0561,
江戸川 (Edogawa),2016-03-10,05:01～06:00,0.0606,0.0527,0.0563,
江戸川 (Edogawa),2016-03-10,04:01～05:00,0.0593,0.0517,0.0562,
江戸川 (Edogawa),2016-03-10,03:01～04:00,0.0611,0.0522,0.0565,
江戸川 (Edogawa),2016-03-10,02:01～03:00,0.0593,0.0528,0.0560,
江戸川 (Edogawa),2016-03-10,01:01～02:00,0.0605,0.0531,0.0573,
江戸川 (Edogawa),2016-03-10,00:01～01:00,0.0644,0.0573,0.0606,
江戸川 (Edogawa),2016-03-09,23:01～24:00,0.0667,0.0599,0.0633,
江戸川 (Edogawa),2016-03-09,22:01～23:00,0.0702,0.0621,0.0649,
江戸川 (Edogawa),2016-03-09,21:01～22:00,0.0704,0.0632,0.0665,
江戸川 (Edogawa),2016-03-09,20:01～21:00,0.0717,0.0637,0.0683,
江戸川 (Edogawa),2016-03-09,19:01～20:00,0.0706,0.0639,0.0677,
江戸川 (Edogawa),2016-03-09,18:01～19:00,0.0688,0.0615,0.0654,
江戸川 (Edogawa),2016-03-09,17:01～18:00,0.0704,0.0596,0.0643,
江戸川 (Edogawa),2016-03-09,16:01～17:00,0.0801,0.0636,0.0706,
江戸川 (Edogawa),2016-03-09,15:01～16:00,0.0777,0.0668,0.0721,
江戸川 (Edogawa),2016-03-09,14:01～15:00,0.0701,0.0625,0.0669,
江戸川 (Edogawa),2016-03-09,13:01～14:00,0.0710,0.0626,0.0670,
江戸川 (Edogawa),2016-03-09,12:01～13:00,0.0672,0.0580,0.0627,
江戸川 (Edogawa),2016-03-09,11:01～12:00,0.0622,0.0553,0.0584,
江戸川 (Edogawa),2016-03-09,10:01～11:00,0.0616,0.0552,0.0575,
江戸川 (Edogawa),2016-03-09,09:01～10:00,0.0605,0.0528,0.0571,
江戸川 (Edogawa),2016-03-09,08:01～09:00,0.0608,0.0535,0.0573,
江戸川 (Edogawa),2016-03-09,07:01～08:00,0.0605,0.0531,0.0571,
江戸川 (Edogawa),2016-03-09,06:01～07:00,0.0606,0.0534,0.0568,
江戸川 (Edogawa),2016-03-09,05:01～06:00,0.0594,0.0528,0.0570,
江戸川 (Edogawa),2016-03-09,04:01～05:00,0.0606,0.0536,0.0572,
江戸川 (Edogawa),2016-03-09,03:01～04:00,0.0604,0.0539,0.0571,
江戸川 (Edogawa),2016-03-09,02:01～03:00,0.0590,0.0540,0.0565,
江戸川 (Edogawa),2016-03-09,01:01～02:00,0.0590,0.0542,0.0567,
江戸川 (Edogawa),2016-03-09,00:01～01:00,0.0591,0.0530,0.0566,
江戸川 (Edogawa),2016-03-08,23:01～24:00,0.0602,0.0545,0.0574,
江戸川 (Edogawa),2016-03-08,22:01～23:00,0.0599,0.0532,0.0572,
江戸川 (Edogawa),2016-03-08,21:01～22:00,0.0606,0.0544,0.0575,
江戸川 (Edogawa),2016-03-08,20:01～21:00,0.0598,0.0544,0.0573,
江戸川 (Edogawa),2016-03-08,19:01～20:00,0.0616,0.0530,0.0571,
江戸川 (Edogawa),2016-03-08,18:01～19:00,0.0602,0.0533,0.0571,
江戸川 (Edogawa),2016-03-08,17:01～18:00,0.0611,0.0530,0.0573,
江戸川 (Edogawa),2016-03-08,16:01～17:00,0.0612,0.0531,0.0573,
江戸川 (Edogawa),2016-03-08,15:01～16:00,0.0596,0.0536,0.0572,
江戸川 (Edogawa),2016-03-08,14:01～15:00,0.0614,0.0547,0.0574,
江戸川 (Edogawa),2016-03-08,13:01～14:00,0.0616,0.0528,0.0568,
江戸川 (Edogawa),2016-03-08,12:01～13:00,0.0605,0.0538,0.0572,
江戸川 (Edogawa),2016-03-08,11:01～12:00,0.0600,0.0548,0.0571,
江戸川 (Edogawa),2016-03-08,10:01～11:00,0.0602,0.0543,0.0572,
江戸川 (Edogawa),2016-03-08,09:01～10:00,0.0602,0.0534,0.0569,
江戸川 (Edogawa),2016-03-08,08:01～09:00,0.0597,0.0536,0.0569,
江戸川 (Edogawa),2016-03-08,07:01～08:00,0.0610,0.0540,0.0566,
江戸川 (Edogawa),2016-03-08,06:01～07:00,0.0604,0.0535,0.0571,
江戸川 (Edogawa),2016-03-08,05:01～06:00,0.0602,0.0542,0.0570,
江戸川 (Edogawa),2016-03-08,04:01～05:00,0.0604,0.0527,0.0564,
江戸川 (Edogawa),2016-03-08,03:01～04:00,0.0595,0.0536,0.0569,
江戸川 (Edogawa),2016-03-08,02:01～03:00,0.0601,0.0537,0.0566,
江戸川 (Edogawa),2016-03-08,01:01～02:00,0.0603,0.0532,0.0569,
江戸川 (Edogawa),2016-03-08,00:01～01:00,0.0607,0.0529,0.0568,
江戸川 (Edogawa),2016-03-07,23:01～24:00,0.0598,0.0530,0.0568,
江戸川 (Edogawa),2016-03-07,22:01～23:00,0.0615,0.0532,0.0568,
江戸川 (Edogawa),2016-03-07,21:01～22:00,0.0602,0.0532,0.0569,
江戸川 (Edogawa),2016-03-07,20:01～21:00,0.0619,0.0530,0.0571,
江戸川 (Edogawa),2016-03-07,19:01～20:00,0.0587,0.0526,0.0558,
江戸川 (Edogawa),2016-03-07,18:01～19:00,0.0602,0.0521,0.0563,
江戸川 (Edogawa),2016-03-07,17:01～18:00,0.0606,0.0532,0.0569,
江戸川 (Edogawa),2016-03-07,16:01～17:00,0.0599,0.0529,0.0562,
江戸川 (Edogawa),2016-03-07,15:01～16:00,0.0601,0.0524,0.0564,
江戸川 (Edogawa),2016-03-07,14:01～15:00,0.0620,0.0546,0.0587,
江戸川 (Edogawa),2016-03-07,13:01～14:00,0.0678,0.0589,0.0632,
江戸川 (Edogawa),2016-03-07,12:01～13:00,0.0709,0.0630,0.0674,
江戸川 (Edogawa),2016-03-07,11:01～12:00,0.0729,0.0656,0.0691,
江戸川 (Edogawa),2016-03-07,10:01～11:00,0.0735,0.0651,0.0687,
江戸川 (Edogawa),2016-03-07,09:01～10:00,0.0698,0.0617,0.0656,
江戸川 (Edogawa),2016-03-07,08:01～09:00,0.0688,0.0622,0.0658,
江戸川 (Edogawa),2016-03-07,07:01～08:00,0.0722,0.0637,0.0679,
江戸川 (Edogawa),2016-03-07,06:01～07:00,0.0742,0.0669,0.0703,
江戸川 (Edogawa),2016-03-07,05:01～06:00,0.0720,0.0652,0.0687,
江戸川 (Edogawa),2016-03-07,04:01～05:00,0.0692,0.0580,0.0633,
江戸川 (Edogawa),2016-03-07,03:01～04:00,0.0653,0.0579,0.0612,
江戸川 (Edogawa),2016-03-07,02:01～03:00,0.0617,0.0540,0.0580,
江戸川 (Edogawa),2016-03-07,01:01～02:00,0.0618,0.0536,0.0575,
江戸川 (Edogawa),2016-03-07,00:01～01:00,0.0604,0.0542,0.0578,
